CYCB

Cambridge Bay  Airport

Cambridge Bay, Canada
Issued Wind Visibility Ceiling Temperature Dew Point Humidity Barometer
Nov-25
01:06 UTC
310°
7 KTS
1 1/4 miles Broken
700' AGL
-14° C
F
-16° C
F
85% 29.71" Hg
1006.7 hPa
IFR
Nov-25
00:37 UTC
330°
7 KTS
1 miles Broken
200' AGL
-13° C
F
-15° C
F
85% 29.72" Hg
1006.9 hPa
LIFR
Nov-25
00:00 UTC
310°
5 KTS
2 miles Overcast
700' AGL
-12° C
10° F
-14° C
F
85% 29.72" Hg
1006.8 hPa
IFR
Nov-24
23:35 UTC
300°
3 KTS
2 miles Overcast
700' AGL
-12° C
10° F
-14° C
F
85% 29.72" Hg
1006.8 hPa
IFR
Nov-24
23:00 UTC
2 miles Broken
400' AGL
-12° C
10° F
-14° C
F
85% 29.71" Hg
1006.6 hPa
LIFR
Nov-24
22:00 UTC
280°
3 KTS
2 miles Broken
300' AGL
-12° C
10° F
-13° C
F
92% 29.7" Hg
1006.4 hPa
LIFR
Nov-24
21:00 UTC
2 1/2 miles Broken
300' AGL
-12° C
10° F
-13° C
F
92% 29.69" Hg
1005.9 hPa
LIFR
Nov-24
20:00 UTC
060°
4 KTS
2 1/2 miles Broken
500' AGL
-11° C
12° F
-13° C
F
85% 29.69" Hg
1005.9 hPa
IFR
Nov-24
19:51 UTC
2 1/2 miles Broken
500' AGL
-12° C
10° F
-13° C
F
92% 29.69" Hg
1005.8 hPa
IFR
Nov-24
19:27 UTC
100°
2 KTS
2 1/2 miles Overcast
800' AGL
-11° C
12° F
-13° C
F
85% 29.68" Hg
1005.5 hPa
IFR
Nov-24
19:00 UTC
1 1/2 miles Overcast
300' AGL
-11° C
12° F
-12° C
10° F
92% 29.67" Hg
1005.3 hPa
LIFR
Nov-24
18:45 UTC
1 1/4 miles Overcast
300' AGL
-11° C
12° F
-12° C
10° F
92% 29.67" Hg
1005.3 hPa
LIFR
Nov-24
18:00 UTC
1/38 miles Overcast
200' AGL
-11° C
12° F
-13° C
F
85% 29.67" Hg
1005.1 hPa
LIFR
Nov-24
17:36 UTC
210°
2 KTS
1/38 miles Overcast
200' AGL
-11° C
12° F
-13° C
F
85% 29.66" Hg
1005 hPa
LIFR
Nov-24
17:00 UTC
190°
4 KTS
1/2 miles Overcast
200' AGL
-11° C
12° F
-12° C
10° F
92% 29.66" Hg
1004.8 hPa
LIFR
Nov-24
16:00 UTC
100°
10 KTS
1/2 miles Overcast
200' AGL
-11° C
12° F
-12° C
10° F
92% 29.64" Hg
1004.3 hPa
LIFR
Nov-24
15:48 UTC
110°
9 KTS
1/2 miles Overcast
200' AGL
-11° C
12° F
-12° C
10° F
92% 29.64" Hg
1004.2 hPa
LIFR
Nov-24
15:32 UTC
110°
9 KTS
1/63 miles Overcast
300' AGL
-10° C
14° F
-12° C
10° F
85% 29.63" Hg
1004 hPa
LIFR
Nov-24
15:00 UTC
110°
8 KTS
2 miles Overcast
400' AGL
-11° C
12° F
-12° C
10° F
92% 29.63" Hg
1003.9 hPa
LIFR
Nov-24
14:48 UTC
100°
7 KTS
2 miles Overcast
400' AGL
-11° C
12° F
-12° C
10° F
92% 29.63" Hg
1003.9 hPa
LIFR
Nov-24
14:20 UTC
120°
7 KTS
1/63 miles Overcast
200' AGL
-11° C
12° F
-12° C
10° F
92% 29.61" Hg
1003.2 hPa
LIFR
Nov-24
14:00 UTC
120°
8 KTS
1/63 miles Overcast
300' AGL
-11° C
12° F
-12° C
10° F
92% 29.6" Hg
1002.8 hPa
LIFR
Nov-24
13:47 UTC
110°
8 KTS
1/63 miles Broken
300' AGL
-10° C
14° F
-12° C
10° F
85% 29.59" Hg
1002.6 hPa
LIFR
Nov-24
13:00 UTC
100°
10 KTS
2 1/4 miles Broken
300' AGL
-10° C
14° F
-11° C
12° F
92% 29.57" Hg
1001.8 hPa
LIFR
Nov-24
12:00 UTC
100°
11 KTS
2 1/4 miles Broken
300' AGL
-10° C
14° F
-12° C
10° F
85% 29.55" Hg
1001.3 hPa
LIFR
Nov-24
11:42 UTC
100°
12 KTS
2 miles Broken
300' AGL
-10° C
14° F
-11° C
12° F
92% 29.55" Hg
1001.2 hPa
LIFR
Nov-24
11:00 UTC
090°
10 KTS
1 1/4 miles Broken
400' AGL
-8° C
18° F
-9° C
16° F
93% 29.53" Hg
1000.6 hPa
LIFR
Nov-24
10:52 UTC
080°
11 KTS
1 1/4 miles Broken
400' AGL
-8° C
18° F
-10° C
14° F
86% 29.53" Hg
1000.5 hPa
LIFR
Nov-24
10:00 UTC
070°
9 KTS
1 1/4 miles Broken
400' AGL
-8° C
18° F
-9° C
16° F
93% 29.52" Hg
1000.1 hPa
LIFR
Nov-24
09:35 UTC
080°
9 KTS
1 1/4 miles Broken
400' AGL
-8° C
18° F
-9° C
16° F
93% 29.5" Hg
999.6 hPa
LIFR
Nov-24
09:00 UTC
080°
10 KTS
3/4 miles Broken
400' AGL
-7° C
19° F
-8° C
18° F
93% 29.5" Hg
999.4 hPa
LIFR
Nov-24
08:38 UTC
080°
10 KTS
3/4 miles Broken
400' AGL
-7° C
19° F
-8° C
18° F
93% 29.49" Hg
999.3 hPa
LIFR
Nov-24
08:00 UTC
070°
7 KTS
4 miles Overcast
1,000' AGL
-8° C
18° F
-9° C
16° F
93% 29.49" Hg
999 hPa
MVFR
Nov-24
07:51 UTC
060°
7 KTS
4 miles Overcast
1,000' AGL
-8° C
18° F
-9° C
16° F
93% 29.48" Hg
998.9 hPa
MVFR
Nov-24
07:00 UTC
070°
10 KTS
6 miles Overcast
1,600' AGL
-9° C
16° F
-10° C
14° F
93% 29.47" Hg
998.6 hPa
MVFR
Nov-24
06:28 UTC
050°
10 KTS
6 miles Overcast
1,600' AGL
-8° C
18° F
-10° C
14° F
86% 29.47" Hg
998.3 hPa
MVFR
Nov-24
06:00 UTC
070°
11 KTS
6 miles Broken
400' AGL
-8° C
18° F
-9° C
16° F
93% 29.46" Hg
998 hPa
LIFR
Nov-24
05:52 UTC
060°
10 KTS
6 miles Broken
400' AGL
-8° C
18° F
-9° C
16° F
93% 29.46" Hg
998 hPa
LIFR
Nov-24
05:00 UTC
070°
11 KTS
6 miles Broken
400' AGL
-7° C
19° F
-8° C
18° F
93% 29.44" Hg
997.4 hPa
LIFR
Nov-24
04:44 UTC
010°
10 KTS
6 miles Broken
400' AGL
-8° C
18° F
-8° C
18° F
100% 29.43" Hg
997.2 hPa
LIFR
Nov-24
04:00 UTC
350°
7 KTS
8 miles Broken
300' AGL
-9° C
16° F
-10° C
14° F
93% 29.44" Hg
997.3 hPa
LIFR
Nov-24
03:13 UTC
330°
8 KTS
8 miles Overcast
300' AGL
-10° C
14° F
-11° C
12° F
92% 29.45" Hg
997.7 hPa
LIFR
Nov-24
03:00 UTC
320°
9 KTS
8 miles Broken
400' AGL
-10° C
14° F
-11° C
12° F
92% 29.45" Hg
997.7 hPa
LIFR
Nov-24
02:31 UTC
340°
8 KTS
8 miles Broken
400' AGL
-10° C
14° F
-12° C
10° F
85% 29.45" Hg
997.9 hPa
LIFR
Nov-24
02:00 UTC
320°
9 KTS
8 miles Overcast
1,600' AGL
-11° C
12° F
-12° C
10° F
92% 29.46" Hg
998.2 hPa
MVFR